Other Public Products
Issued by NWS Charleston, SC

Home | Current Version | Previous Version | Text Only | Print | Product List | Glossary On
Versions: 1 2 3 4 5 6 7 8 9 10 11 12 13 14 15 16 17 18 19 20 21 22 23 24 25 26 27 28 29 30 31 32 33 34 35 36 37 38 39 40 41 42 43 44 45 46 47 48 49 50
906
FPUS82 KCHS 130326
OPUCHS

TEST...KCHS/KSAV Gateway Observations...TEST
National Weather Service Charleston SC
1000 PM EST TUE DEC 12 2017

NOTE: "fair" indicates few or no clouds below 12,000 feet with no
significant weather and/or obstructions to visibility.

SCZ050-WAZ558-NCZ071-TXZ119-213-PAZ071-DCZ001-FLZ074-172-MI076-
NYZ176-178-MAZ016-IL014-TNZ027-NJZ106-GAZ044-MD014-130400-

...Gateway Observations for Charleston International...

CITY           SKY/WX    TMP DP  RH WIND       PRES   REMARKS
Chas Airport   CLEAR     47  29  49 W15G23    29.86R
Seattle        PTCLDY    39  33  79 N3        30.40S
Charlotte      CLEAR     35  14  42 NW7       29.85R WCI  29
Dallas DFW     CLEAR     50  25  37 NW7       30.23F
Dallas Love    CLEAR     47  29  49 CALM      30.25F
Philladelphia  CLEAR     29   6  38 NW24G37   29.57F WCI  15
Wash National  MOCLDY    27   7  42 NW26G33   29.73R WCI  12
Baltimore      MOCLDY    26   9  48 NW16      29.68S WCI  14
Miami          CLEAR     62  57  83 SW5       30.00S
Detroit        MOCLDY    17   8  67 W8        29.90S WCI   7
Newark         PTCLDY    34  17  50 NW18G28   29.44F WCI  23
Laguardia      PTCLDY    35  23  61 NW23G31   29.42F WCI  23
J F K          PTCLDY    34  18  52 NW23G33   29.43F WCI  22
Boston Logan   MOCLDY    35  33  92 W12       29.27F WCI  27
Ft. Lauderdale CLEAR     62  59  90 SW5       29.98S
Chicago O`Hare CLOUDY    19   9  65 W6        29.98F WCI  11
Chicago Midway CLOUDY    20   9  62 W7        29.99F WCI  11
Houston Bush   PTCLDY    49  30  48 W3        30.26R
Houston Hobby  CLEAR     51  29  42 W3        30.25R
Nashville      CLEAR     31   8  38 NW6       30.13R WCI  25
Atlanta        CLEAR     40  20  44 NW18G32   29.97R WCI  31

$$

GAZ044-118-TXZ119-213-NCZ071-DCZ001-MDZ014-506-PAZ021-071-NJZ106-
NYZ176-178-MAZ106-OHZ011-021-055-MIZ076-KYZ091-ILZ014-INZ047-
MNZ060-ONZ431-130400-

...Gateway Observations for Savannah International...

CITY           SKY/WX    TMP DP  RH WIND       PRES   REMARKS
Savannah Arpt  CLEAR     47  31  53 W15G24    29.93R
Atlanta        CLEAR     40  20  44 NW18G32   29.97R WCI  31
Charlotte      CLEAR     35  14  42 NW7       29.85R WCI  29
Dallas DFW     CLEAR     50  25  37 NW7       30.23F
Houston Bush   PTCLDY    49  30  48 W3        30.26R
Wash National  MOCLDY    27   7  42 NW26G33   29.73R WCI  12
Wash Dulles    PTCLDY    24   2  38 NW23G31   29.73R WCI   9
Baltimore      MOCLDY    26   9  48 NW16      29.68S WCI  14
Philadelphia   CLEAR     29   6  38 NW24G37   29.57F WCI  15
Newark         PTCLDY    34  17  50 NW18G28   29.44F WCI  23
Laguardia      PTCLDY    35  23  61 NW23G31   29.42F WCI  23
J F K          PTCLDY    34  18  52 NW23G33   29.43F WCI  22
Boston         MOCLDY    35  33  92 W12       29.27F WCI  27
Pittsburg      FLURRIES  17   9  70 W10       29.78F WCI   5
Akron          LGT SNOW  16  10  77 W12       29.81F VSB 1   WCI   3
Cleveland      CLOUDY    19   4  51 NW26G38   29.87S WCI   1
Cincinnati     CLEAR     20   9  62 NW9       30.00S WCI   9
Columbus       CLOUDY    20  16  86 W14       29.94F WCI   6
Detroit        MOCLDY    17   8  67 W8        29.90S WCI   7
Chicago O`Hare CLOUDY    19   9  65 W6        29.98F WCI  11
Minneapolis    CLOUDY    24  20  84 S6        29.74F WCI  17
Indianapolis   CLEAR     18   7  62 W7        30.02F WCI   9
Toronto Canada PTCLDY    12   1  62 NW17      29.62S WCI  -5

$$




USA.gov is the U.S. government's official web portal to all federal, state and local government web resources and services.